EW7038 Weather Reports


Display with metric or nautical units.
time (UTC)temp
F
wind
direction
speed
MPH
gust
MPH
rain 1hr
in
rain 24hr
in
rain mn
in
humidity
%
barometer
mb
20260906055815 57 153 2.0 2.0 0.00 0.01 0.01 70 1015.5
20260906054815 58 160 2.0 3.0 0.00 0.01 0.01 69 1015.6
20260906053817 58 227 2.0 3.0 0.00 0.01 0.01 69 1015.6
20260906052817 58 144 1.0 2.0 0.00 0.01 0.01 69 1015.7
20260906051816 58 145 2.0 2.0 0.00 0.01 0.01 70 1015.6
20260906050816 58 160 1.0 2.0 0.00 0.01 0.01 70 1015.6
20260906045815 58 156 2.0 3.0 0.00 0.01 0.01 68 1015.7
20260906044835 58 149 2.0 3.0 0.00 0.01 0.01 68 1015.8
20260906043838 58 167 2.0 3.0 0.00 0.01 0.01 68 1015.7
20260906042817 58 144 2.0 3.0 0.00 0.01 0.01 68 1015.7
20260906041817 58 145 2.0 3.0 0.00 0.01 0.01 67 1015.7
20260906040836 58 136 2.0 3.0 0.00 0.01 0.01 67 1015.7
20260906035816 59 169 2.0 4.0 0.00 0.01 0.01 67 1015.6
20260906034815 59 129 2.0 2.0 0.00 0.01 0.01 65 1015.4
20260906033815 60 164 1.0 6.0 0.00 0.01 0.01 63 1015.4
20260906032837 61 249 3.0 6.0 0.00 0.01 0.01 62 1015.3
20260906031817 62 187 2.0 4.0 0.00 0.01 0.01 59 1015.1
20260906030837 63 266 3.0 7.0 0.00 0.01 0.01 58 1015.0
20260906025816 61 159 1.0 3.0 0.00 0.01 0.01 62 1014.9
20260906024816 61 199 2.0 5.0 0.00 0.01 0.01 62 1014.9
20260906023835 61 163 2.0 3.0 0.00 0.01 0.01 61 1014.9
20260906022837 62 160 2.0 4.0 0.00 0.01 0.01 60 1014.8
20260906021817 64 152 2.0 4.0 0.00 0.01 0.01 56 1014.9
20260906020837 68 182 2.0 4.0 0.00 0.01 0.01 49 1014.8
20260906015816 69 254 1.0 4.0 0.00 0.01 0.01 48 1014.8
20260906014816 70 181 1.0 5.0 0.00 0.01 0.01 47 1014.8
20260906013815 71 1 1.0 2.0 0.00 0.01 0.01 44 1014.8
20260906012815 71 313 1.0 2.0 0.00 0.01 0.01 43 1015.0
20260906011817 72 127 1.0 2.0 0.00 0.01 0.01 44 1015.0
20260906010817 71 356 1.0 3.0 0.00 0.01 0.01 43 1014.9
20260906005816 71 356 1.0 3.0 0.00 0.01 0.01 43 1015.0
20260906004816 71 37 1.0 3.0 0.00 0.01 0.01 45 1015.1
20260906003836 70 243 1.0 4.0 0.00 0.01 0.01 46 1015.1
20260906002835 69 260 2.0 4.0 0.00 0.01 0.01 46 1015.2
20260906001818 68 247 2.0 5.0 0.00 0.01 0.01 54 1015.3
20260906000817 67 185 1.0 4.0 0.00 0.01 0.01 54 1015.3
20260905235817 68 133 1.0 4.0 0.00 0.00 0.00 48 1015.4
20260905234816 69 142 0.0 3.0 0.00 0.00 0.00 46 1015.3
20260905233816 69 272 1.0 4.0 0.00 0.00 0.00 43 1015.2
20260905232815 68 284 1.0 6.0 0.00 0.00 0.00 44 1015.2
20260905231815 68 261 4.0 6.0 0.00 0.00 0.00 44 1015.2
20260905230818 69 293 2.0 4.0 0.00 0.01 0.00 44 1015.2
20260905225817 69 343 2.0 4.0 0.00 0.01 0.00 43 1015.3
20260905224837 69 310 1.0 6.0 0.00 0.01 0.00 44 1015.2
20260905223816 69 335 2.0 5.0 0.00 0.01 0.00 43 1015.1
20260905222815 69 342 2.0 5.0 0.00 0.01 0.00 42 1015.2
20260905221815 70 345 2.0 4.0 0.00 0.01 0.00 42 1015.3
20260905220818 70 43 1.0 2.0 0.00 0.01 0.00 42 1015.3
20260905215817 70 332 1.0 2.0 0.00 0.01 0.00 42 1015.2
20260905214817 70 337 1.0 3.0 0.00 0.01 0.00 42 1015.3
20260905213816 70 358 1.0 4.0 0.00 0.01 0.00 40 1015.4
20260905212816 70 10 2.0 4.0 0.00 0.01 0.00 41 1015.5
20260905211815 71 340 2.0 5.0 0.00 0.01 0.00 42 1015.5
20260905210815 70 319 2.0 6.0 0.00 0.01 0.00 38 1015.6
20260905205817 70 8 1.0 3.0 0.00 0.01 0.00 42 1015.6
20260905204817 69 341 1.0 4.0 0.00 0.01 0.00 43 1015.7
20260905203817 69 353 1.0 4.0 0.00 0.01 0.00 42 1015.7
20260905202816 70 321 2.0 5.0 0.00 0.01 0.00 43 1015.7
20260905201815 70 351 3.0 4.0 0.00 0.01 0.00 44 1015.8
20260905200815 69 39 2.0 4.0 0.00 0.01 0.00 45 1015.9
20260905195815 69 340 1.0 4.0 0.00 0.01 0.00 46 1016.0
20260905194818 68 13 2.0 5.0 0.00 0.01 0.00 46 1016.1
20260905193817 68 18 2.0 3.0 0.00 0.01 0.00 45 1016.2
20260905192816 68 39 2.0 4.0 0.00 0.01 0.00 46 1016.2
20260905191816 67 7 2.0 4.0 0.00 0.01 0.00 48 1016.3
20260905190816 67 43 2.0 4.0 0.00 0.01 0.00 53 1016.4
20260905185815 66 274 1.0 4.0 0.00 0.01 0.00 50 1016.6
20260905184817 65 350 1.0 5.0 0.00 0.01 0.00 52 1016.7
20260905183817 64 66 1.0 3.0 0.00 0.01 0.00 55 1016.9
20260905182837 63 336 1.0 4.0 0.00 0.01 0.00 61 1017.1
20260905181816 61 358 2.0 4.0 0.00 0.01 0.00 65 1017.2
20260905180816 60 114 1.0 4.0 0.00 0.01 0.00 67 1017.4
20260905175815 59 357 1.0 3.0 0.00 0.01 0.00 70 1017.4
20260905174815 59 92 1.0 4.0 0.00 0.01 0.00 69 1017.4
20260905173838 59 334 1.0 2.0 0.00 0.01 0.00 70 1017.4
20260905172817 58 308 1.0 3.0 0.00 0.01 0.00 71 1017.4
20260905171857 58 356 1.0 2.0 0.00 0.01 0.00 72 1017.4
20260905170816 58 349 1.0 2.0 0.00 0.01 0.00 71 1017.4
20260905165816 58 31 2.0 3.0 0.00 0.01 0.00 71 1017.4
20260905164815 58 322 2.0 5.0 0.00 0.00 0.00 71 1017.4
20260905163817 57 349 1.0 4.0 0.00 0.00 0.00 71 1017.4
20260905162817 57 353 2.0 3.0 0.00 0.00 0.00 73 1017.4
20260905161819 57 327 2.0 3.0 0.00 0.00 0.00 73 1017.3
20260905160816 57 239 1.0 2.0 0.00 0.00 0.00 73 1017.3
20260905155816 56 318 1.0 3.0 0.00 0.00 0.00 74 1017.4
20260905154815 56 318 2.0 6.0 0.00 0.00 0.00 74 1017.3
20260905153835 56 275 4.0 6.0 0.00 0.00 0.00 75 1017.3
20260905152837 55 258 4.0 6.0 0.00 0.00 0.00 76 1017.4
20260905151817 55 283 2.0 6.0 0.00 0.00 0.00 77 1017.4
20260905150817 55 298 1.0 5.0 0.00 0.00 0.00 78 1017.4
20260905145816 55 255 1.0 5.0 0.00 0.00 0.00 78 1017.4
20260905144816 55 299 2.0 5.0 0.00 0.00 0.00 79 1017.3
20260905143815 55 317 2.0 6.0 0.00 0.00 0.00 79 1017.3
20260905142818 55 277 1.0 5.0 0.00 0.01 0.00 80 1017.2
20260905141837 54 165 1.0 5.0 0.00 0.01 0.00 80 1017.2
20260905140817 54 233 3.0 5.0 0.00 0.01 0.00 80 1017.1
20260905135816 54 231 2.0 6.0 0.00 0.01 0.00 82 1016.9
20260905134816 53 144 0.0 3.0 0.00 0.01 0.00 82 1016.8
20260905133836 53 157 2.0 3.0 0.00 0.01 0.00 82 1016.8
20260905132835 53 151 2.0 4.0 0.00 0.01 0.00 81 1016.7
20260905131817 53 156 2.0 2.0 0.00 0.02 0.00 81 1016.6
20260905130837 54 104 1.0 6.0 0.00 0.02 0.00 79 1016.5
20260905125817 54 257 2.0 4.0 0.00 0.02 0.00 81 1016.5
20260905124816 54 217 2.0 4.0 0.00 0.02 0.00 80 1016.5
20260905123815 54 175 1.0 3.0 0.00 0.02 0.00 79 1016.5
20260905122815 55 164 2.0 6.0 0.00 0.02 0.00 77 1016.5
20260905121814 55 245 3.0 9.0 0.00 0.01 0.00 76 1016.5
20260905120818 55 209 3.0 8.0 0.00 0.01 0.00 77 1016.5
20260905115817 55 267 3.0 6.0 0.00 0.01 0.00 77 1016.4
20260905114816 55 250 3.0 6.0 0.00 0.01 0.00 77 1016.4
20260905113816 55 240 3.0 6.0 0.00 0.01 0.00 78 1016.4
20260905112815 55 267 4.0 5.0 0.00 0.01 0.00 79 1016.4
20260905111835 54 229 1.0 2.0 0.00 0.01 0.00 78 1016.4
20260905110818 54 163 1.0 4.0 0.00 0.01 0.00 77 1016.3
20260905105817 55 268 2.0 5.0 0.00 0.01 0.00 77 1016.1
20260905104817 56 147 1.0 7.0 0.00 0.01 0.00 75 1016.2
20260905103818 56 244 4.0 8.0 0.00 0.01 0.00 76 1016.2
20260905102816 56 240 2.0 9.0 0.00 0.01 0.00 75 1016.2
20260905101815 56 243 4.0 7.0 0.00 0.01 0.00 77 1016.1
20260905100815 56 264 3.0 8.0 0.00 0.01 0.00 77 1016.2
20260905095818 56 266 4.0 7.0 0.00 0.01 0.00 76 1016.2
20260905094837 56 183 1.0 7.0 0.00 0.01 0.00 75 1016.2
20260905093817 56 254 4.0 11.0 0.00 0.01 0.00 75 1016.3
20260905092816 56 244 7.0 11.0 0.00 0.01 0.00 75 1016.3
20260905091816 56 255 5.0 9.0 0.00 0.01 0.00 76 1016.2
20260905090815 56 244 3.0 9.0 0.00 0.01 0.00 75 1016.1
20260905085817 56 266 4.0 9.0 0.00 0.01 0.00 76 1016.1
20260905084837 56 280 6.0 9.0 0.00 0.01 0.00 75 1016.1
20260905083817 56 241 4.0 7.0 0.00 0.01 0.00 75 1016.1
20260905082816 56 250 4.0 7.0 0.00 0.01 0.00 76 1016.1
20260905081836 56 265 1.0 10.0 0.00 0.01 0.00 77 1015.9
20260905080836 56 272 2.0 6.0 0.00 0.01 0.00 77 1015.9
20260905075815 57 201 2.0 8.0 0.00 0.01 0.00 77 1015.8
20260905074818 57 293 3.0 10.0 0.00 0.01 0.00 77 1015.8
20260905073817 57 269 5.0 10.0 0.00 0.01 0.00 78 1015.7
20260905072837 57 236 2.0 11.0 0.00 0.01 0.00 76 1015.6
20260905071816 57 262 6.0 14.0 0.00 0.01 0.00 75 1015.4
20260905070815 57 253 7.0 14.0 0.00 0.01 0.00 72 1015.2
20260905065835 57 242 8.0 17.0 0.00 0.01 0.01 72 1015.2
20260905064818 57 266 6.0 13.0 0.00 0.01 0.01 76 1015.2
20260905063817 57 283 7.0 14.0 0.00 0.01 0.01 75 1015.1
20260905062817 57 274 5.0 11.0 0.00 0.01 0.01 74 1015.1
20260905061816 58 277 4.0 11.0 0.00 0.01 0.01 73 1015.1
20260905060836 58 263 3.0 9.0 0.00 0.01 0.01 72 1015.3